Mytilini, Greece

12:11 PM EEST on August 20, 2017 (GMT +0300)
Odysseas Elytis

Weather History for LGMT - April, 2013

Change the Weather History Date:

Tuesday, April 9, 2013

  Actual Average Record
Temperature  
Mean Temperature 56 °F -  
Max Temperature 61 °F 69 °F 80 °F (1998)
Min Temperature 48 °F 55 °F 35 °F (2003)
Degree Days  
Heating Degree Days 10    
Growing Degree Days 6 (Base 50)    
Moisture  
Dew Point 47 °F    
Average Humidity 75    
Maximum Humidity 88    
Minimum Humidity 55    
Precipitation  
Precipitation 0.00 in 0.05 in - ()
Sea Level Pressure  
Sea Level Pressure 29.94 in    
Wind  
Wind Speed 5 mph ()    
Max Wind Speed 9 mph    
Max Gust Speed -    
Visibility 6.2 miles    
Events      
Averages and records for this station are not official NWS values.
T = Trace of Precipitation, MM = Missing Value Source: Averaged Metar Reports

Daily Weather History Graph

Daily Weather History Graph

Search for Another Location

Airport or City:

Trip Planner

Search our weather history database for the weather conditions in past years. The results will help you decide how hot, cold, wet, or windy it might be!

Date:

Astronomy

Apr. 09, 2013 Rise Set
Actual Time 6:45 AM EEST 7:45 PM EEST
Civil Twilight 6:18 AM EEST 8:12 PM EEST
Nautical Twilight 5:46 AM EEST 8:44 PM EEST
Astronomical Twilight 5:12 AM EEST 9:18 PM EEST
Moon 5:57 AM EEST (4/9) 7:01 PM EEST (4/9)
Length of Visible Light 13h 53m
Length of Day
12h 59m
Waning Crescent, 1% of the Moon is Illuminated
Apr 9
Waning Crescent
Apr 10
New
Apr 18
First Quarter
Apr 25
Full
May 2
Last Quarter

Hourly Weather History & Observations

Time (EEST) Temp. Dew Point Humidity Pressure Visibility Wind Dir Wind Speed Gust Speed Precip Events Conditions
12:50 AM 51.8 °F 48.2 °F 88% 29.86 in 6.2 mi WNW 4.6 mph - N/A   Light Drizzle
1:50 AM 50.0 °F 46.4 °F 87% 29.86 in 6.2 mi WNW 6.9 mph - N/A   Light Drizzle
2:50 AM 50.0 °F 46.4 °F 87% 29.86 in 6.2 mi NW 8.1 mph - N/A   Mostly Cloudy
3:00 AM 51 °F 47 °F 82% 29.88 in 6 mi NW 8.1 mph - -   Partly Cloudy
3:50 AM 50.0 °F 46.4 °F 87% 29.86 in 6.2 mi WNW 9.2 mph - N/A   Mostly Cloudy
4:20 AM 50.0 °F 46.4 °F 87% 29.86 in 6.2 mi WNW 9.2 mph - N/A   Mostly Cloudy
4:50 AM 50.0 °F 46.4 °F 87% 29.89 in 6.2 mi NW 9.2 mph - N/A   Scattered Clouds
5:20 AM 51.8 °F 46.4 °F 82% 29.89 in 6.2 mi NNW 8.1 mph - N/A   Scattered Clouds
5:50 AM 51.8 °F 46.4 °F 82% 29.89 in 6.2 mi NNW 6.9 mph - N/A   Scattered Clouds
6:20 AM 51.8 °F 46.4 °F 82% 29.89 in 6.2 mi North 5.8 mph - N/A   Scattered Clouds
6:50 AM 51.8 °F 46.4 °F 82% 29.89 in 6.2 mi North 4.6 mph - N/A   Scattered Clouds
7:20 AM 51.8 °F 46.4 °F 82% 29.89 in 6.2 mi North 4.6 mph - N/A   Scattered Clouds
7:50 AM 53.6 °F 46.4 °F 77% 29.92 in 6.2 mi North 4.6 mph - N/A   Scattered Clouds
8:20 AM 53.6 °F 46.4 °F 77% 29.92 in 6.2 mi Variable 3.5 mph - N/A   Scattered Clouds
8:50 AM 53.6 °F 44.6 °F 72% 29.92 in 6.2 mi NNE 4.6 mph - N/A   Scattered Clouds
9:00 AM 53 °F 45 °F 67% 29.93 in 6 mi NNE 4.6 mph - -   Mostly Cloudy
9:20 AM 53.6 °F 44.6 °F 72% 29.92 in 6.2 mi NNE 3.5 mph - N/A   Scattered Clouds
9:50 AM 53.6 °F 46.4 °F 77% 29.92 in - Variable 3.5 mph - N/A   Clear
10:20 AM 53.6 °F 46.4 °F 77% 29.92 in - Variable 3.5 mph - N/A   Clear
10:50 AM 55.4 °F 46.4 °F 72% 29.95 in 6.2 mi NW 4.6 mph - N/A   Scattered Clouds
11:20 AM 55.4 °F 46.4 °F 72% 29.95 in 6.2 mi NW 4.6 mph - N/A   Scattered Clouds
11:50 AM 57.2 °F 48.2 °F 72% 29.95 in 6.2 mi Variable 3.5 mph - N/A   Mostly Cloudy
12:20 PM 57.2 °F 48.2 °F 72% 29.95 in 6.2 mi Variable 3.5 mph - N/A   Mostly Cloudy
12:50 PM 57.2 °F 48.2 °F 72% 29.95 in 6.2 mi Variable 3.5 mph - N/A   Mostly Cloudy
1:20 PM 57.2 °F 48.2 °F 72% 29.95 in 6.2 mi Variable 3.5 mph - N/A   Mostly Cloudy
1:50 PM 59.0 °F 48.2 °F 67% 29.98 in 6.2 mi Variable 3.5 mph - N/A   Scattered Clouds
2:20 PM 59.0 °F 48.2 °F 67% 29.98 in 6.2 mi Variable 3.5 mph - N/A   Scattered Clouds
2:50 PM 60.8 °F 48.2 °F 63% 29.98 in 6.2 mi East 4.6 mph - N/A   Scattered Clouds
3:00 PM 60 °F 48 °F 55% 29.99 in 6 mi East 4.6 mph - -   Partly Cloudy
3:20 PM 60.8 °F 48.2 °F 63% 29.98 in 6.2 mi East 4.6 mph - N/A   Scattered Clouds
3:50 PM 60.8 °F 48.2 °F 63% 29.98 in 6.2 mi East 4.6 mph - N/A   Scattered Clouds
4:20 PM 60.8 °F 48.2 °F 63% 29.95 in 6.2 mi East 4.6 mph - N/A   Scattered Clouds
4:50 PM 60.8 °F 48.2 °F 63% 29.95 in 6.2 mi Variable 3.5 mph - N/A   Scattered Clouds
5:20 PM 60.8 °F 48.2 °F 63% 29.95 in 6.2 mi Variable 3.5 mph - N/A   Scattered Clouds
5:50 PM 60.8 °F 48.2 °F 63% 29.95 in 6.2 mi Calm Calm - N/A   Scattered Clouds
6:20 PM 60.8 °F 48.2 °F 63% 29.95 in 6.2 mi Calm Calm - N/A   Scattered Clouds
6:50 PM 59.0 °F 50.0 °F 72% 29.95 in 6.2 mi Calm Calm - N/A   Scattered Clouds
7:20 PM 59.0 °F 50.0 °F 72% 29.98 in - Calm Calm - N/A   Clear
7:50 PM 57.2 °F 48.2 °F 72% 29.98 in - Variable 2.3 mph - N/A   Clear
8:20 PM 55.4 °F 48.2 °F 77% 29.98 in - Variable 2.3 mph - N/A   Clear
8:50 PM 53.6 °F 46.4 °F 77% 29.98 in - WSW 4.6 mph - N/A   Clear
9:00 PM 53 °F 46 °F 71% 29.99 in 6 mi WSW 4.6 mph - -  
9:20 PM 51.8 °F 46.4 °F 82% 29.98 in - WSW 6.9 mph - N/A   Clear
9:50 PM 50.0 °F 44.6 °F 82% 30.01 in - WSW 5.8 mph - N/A   Clear
10:20 PM 50.0 °F 44.6 °F 82% 30.01 in - Variable 3.5 mph - N/A   Clear
10:50 PM 50.0 °F 44.6 °F 82% 30.01 in - WSW 4.6 mph - N/A   Clear
11:20 PM 50.0 °F 44.6 °F 82% 30.01 in - WSW 4.6 mph - N/A   Clear
11:50 PM 48.2 °F 42.8 °F 82% 30.01 in - WSW 5.8 mph - N/A   Clear